Hourly Data Report for September 23, 2020

BRIER ISLAND
NOVA SCOTIA
Current Station Operator: ECCC - MSC

44°17'09.000" N
66°20'48.000" W
15.80 m
8200604
71988
WVU

Download Data

Hourly Data (September 2020)
Hourly Data Report for September 23, 2020
TIME Temp Definition
°C
Dew Point Definition
°C
Rel Hum Definition
%
Wind Dir Definition
10's deg

Wind Spd Definition
km/h
Visibility Definition
km
Stn Press Definition
kPa
Hmdx Definition


Wind Chill Definition


Weather Definition


00:00 10.6 10.3 98 34 69   99.10     LegendNANA
01:00 10.6 9.9 96 34 72   99.02     LegendNANA
02:00 10.3 10.1 99 33 63   99.02     LegendNANA
03:00 9.7 9.7 100 33 62   99.01     LegendNANA
04:00 9.6 9.4 99 32 66   99.07     LegendNANA
05:00 9.4 9.1 98 32 63   99.13     LegendNANA
06:00 9.9 9.0 94 32 54   99.22     LegendNANA
07:00 9.9 9.2 95 31 56   99.31     LegendNANA
08:00 10.0 8.8 92 31 56   99.40     LegendNANA
09:00 11.0 9.0 88 31 49   99.49     LegendNANA
10:00 12.0 9.9 87 29 39   99.53     LegendNANA
11:00 14.0 10.4 79 29 36   99.58     LegendNANA
12:00 14.3 9.9 75 30 28   99.61     LegendNANA
13:00 14.3 10.3 77 27 24   99.65     LegendNANA
14:00 13.3 10.1 81 25 20   99.68     LegendNANA
15:00 14.3 10.4 78 26 29   99.71     LegendNANA
16:00 13.9 10.5 80 24 19   99.75     LegendNANA
17:00 13.4 10.3 82 24 20   99.83     LegendNANA
18:00 13.1 10.5 84 23 15   99.93     LegendNANA
19:00 13.0 10.7 86 24 17   99.99     LegendNANA
20:00 13.1 10.6 85 24 21   100.06     LegendNANA
21:00 12.8 10.9 88 25 21   100.13     LegendNANA
22:00 13.4 10.8 84 24 19   100.19     LegendNANA
23:00 12.9 10.7 87 24 17   100.25     LegendNANA

Notes on Data Quality.

Legend

  • E = Estimated
  • M = Missing
  • NA = Not Available*
  • [empty] = Indicates an unobserved value
Date modified: